TimeAEST,TemperatureF,Dew PointF,Humidity,Sea Level PressureIn,VisibilityMPH,Wind Direction,Wind SpeedMPH,Gust SpeedMPH,PrecipitationIn,Events,Conditions,WindDirDegrees,DateUTC
12:00 AM,67,60,73,30.05,19,East,3.5,,,,Partly Cloudy,100,2013-09-15 14:00:00
12:00 AM,68.0,60.8,78,30.04,6.2,East,3.5,-,N/A,,Partly Cloudy,100,2013-09-15 14:00:00
12:30 AM,68.0,60.8,78,30.04,6.2,East,4.6,-,N/A,,Partly Cloudy,90,2013-09-15 14:30:00
1:00 AM,68,61,71,30.05,,ESE,4.6,,,,,110,2013-09-15 15:00:00
1:00 AM,68.0,60.8,78,30.04,6.2,ESE,4.6,-,N/A,,Scattered Clouds,110,2013-09-15 15:00:00
1:30 AM,68.0,60.8,78,30.04,6.2,ESE,5.8,-,N/A,,Scattered Clouds,110,2013-09-15 15:30:00
2:00 AM,66.2,60.8,83,30.01,6.2,East,5.8,-,N/A,,Scattered Clouds,100,2013-09-15 16:00:00
2:30 AM,66.2,59.0,78,30.01,6.2,SSE,1.2,-,N/A,,Mostly Cloudy,160,2013-09-15 16:30:00
3:00 AM,65,61,82,30.03,16,WSW,4.6,,,,Partly Cloudy,240,2013-09-15 17:00:00
3:00 AM,66.2,60.8,83,30.01,6.2,WSW,4.6,-,N/A,,Mostly Cloudy,240,2013-09-15 17:00:00
3:30 AM,66.2,59.0,78,30.01,6.2,SSE,4.6,-,N/A,,Mostly Cloudy,160,2013-09-15 17:30:00
4:00 AM,65,59,76,30.00,,SSE,4.6,,,,,150,2013-09-15 18:00:00
4:00 AM,66.2,59.0,78,29.98,6.2,SSE,4.6,-,N/A,,Scattered Clouds,150,2013-09-15 18:00:00
4:30 AM,66.2,59.0,78,29.98,-9999.0,SSE,4.6,-,N/A,,Clear,160,2013-09-15 18:30:00
5:00 AM,66.2,60.8,83,29.95,-9999.0,ESE,5.8,-,N/A,,Clear,120,2013-09-15 19:00:00
5:30 AM,66.2,59.0,78,29.98,6.2,SSE,4.6,-,N/A,,Mostly Cloudy,150,2013-09-15 19:30:00
6:00 AM,64.4,59.0,83,29.98,6.2,Calm,Calm,-,N/A,,Mostly Cloudy,0,2013-09-15 20:00:00
6:30 AM,64.4,59.0,83,29.98,6.2,South,1.2,-,N/A,,Mostly Cloudy,170,2013-09-15 20:30:00
7:00 AM,66.2,60.8,83,29.98,6.2,SW,1.2,-,N/A,,Mostly Cloudy,220,2013-09-15 21:00:00
7:30 AM,68.0,60.8,78,29.98,6.2,NE,10.4,-,N/A,,Mostly Cloudy,40,2013-09-15 21:30:00
8:00 AM,69.8,60.8,73,30.01,6.2,NE,9.2,-,N/A,,Mostly Cloudy,40,2013-09-15 22:00:00
8:30 AM,69.8,60.8,73,30.04,6.2,NE,4.6,-,N/A,Rain,Light Rain,50,2013-09-15 22:30:00
8:45 AM,69.8,62.6,78,30.04,3.7,Calm,Calm,-,N/A,Rain,Light Rain,0,2013-09-15 22:45:00
9:00 AM,68,63,80,30.06,4,NNE,2.3,,,Rain,Light Rain,30,2013-09-15 23:00:00
9:00 AM,68.0,62.6,83,30.04,4.3,NNE,2.3,-,N/A,Rain,Light Rain,30,2013-09-15 23:00:00
9:30 AM,66.2,64.4,94,30.04,6.2,North,6.9,-,N/A,Rain,Light Rain,350,2013-09-15 23:30:00
10:00 AM,67,64,85,30.02,,NE,5.8,,,,,50,2013-09-16 00:00:00
10:00 AM,66.2,64.4,94,30.01,6.2,NE,5.8,-,N/A,,Light Drizzle,50,2013-09-16 00:00:00
10:30 AM,68.0,62.6,83,30.01,6.2,ENE,5.8,-,N/A,,Mostly Cloudy,70,2013-09-16 00:30:00
11:00 AM,68.0,62.6,83,30.01,6.2,NE,5.8,-,N/A,Rain,Light Rain,40,2013-09-16 01:00:00
11:30 AM,68.0,64.4,88,29.98,6.2,NE,9.2,-,N/A,Rain,Light Rain,50,2013-09-16 01:30:00
12:00 PM,69,64,77,29.97,12,NE,10.4,,,Rain,Light Rain,50,2013-09-16 02:00:00
12:00 PM,68.0,64.4,88,29.95,6.2,NE,10.4,-,N/A,,Mostly Cloudy,50,2013-09-16 02:00:00
12:30 PM,68.0,62.6,83,29.98,6.2,NNE,10.4,-,N/A,Rain,Light Rain,20,2013-09-16 02:30:00
1:00 PM,68,61,73,29.97,,NNE,11.5,,,,,20,2013-09-16 03:00:00
1:00 PM,68.0,60.8,78,29.95,6.2,NNE,11.5,-,N/A,,Mostly Cloudy,20,2013-09-16 03:00:00
1:30 PM,69.8,62.6,78,29.95,6.2,NNE,11.5,-,N/A,,Mostly Cloudy,30,2013-09-16 03:30:00
2:00 PM,69.8,60.8,73,29.92,6.2,NNE,13.8,-,N/A,,Mostly Cloudy,30,2013-09-16 04:00:00
2:30 PM,68.0,59.0,73,29.89,6.2,NE,12.7,-,N/A,,Mostly Cloudy,40,2013-09-16 04:30:00
3:00 PM,68.0,59.0,73,29.89,6.2,NE,15.0,-,N/A,,Mostly Cloudy,40,2013-09-16 05:00:00
3:30 PM,69.8,59.0,68,29.86,6.2,NE,13.8,-,N/A,,Mostly Cloudy,40,2013-09-16 05:30:00
4:00 PM,69,59,62,29.86,,NE,13.8,,,,,50,2013-09-16 06:00:00
4:00 PM,69.8,59.0,68,29.86,6.2,NE,13.8,-,N/A,Rain,Light Rain,50,2013-09-16 06:00:00
4:30 PM,68.0,59.0,73,29.86,6.2,NNE,16.1,-,N/A,,Mostly Cloudy,30,2013-09-16 06:30:00
5:00 PM,68.0,60.8,78,29.89,6.2,NNE,12.7,-,N/A,,Mostly Cloudy,30,2013-09-16 07:00:00
5:30 PM,69.8,60.8,73,29.86,6.2,NE,13.8,-,N/A,,Mostly Cloudy,40,2013-09-16 07:30:00
6:00 PM,69,62,71,29.89,12,NE,13.8,,,Rain,Light Rain,40,2013-09-16 08:00:00
6:00 PM,69.8,62.6,78,29.89,6.2,NE,13.8,-,N/A,,Mostly Cloudy,40,2013-09-16 08:00:00
6:30 PM,69.8,62.6,78,29.86,6.2,NE,17.3,-,N/A,,Mostly Cloudy,40,2013-09-16 08:30:00
7:00 PM,69,62,73,29.87,,NE,17.3,,,,,40,2013-09-16 09:00:00
7:00 PM,69.8,62.6,78,29.86,6.2,NE,17.3,-,N/A,Rain,Light Rain,40,2013-09-16 09:00:00
7:30 PM,69.8,62.6,78,29.86,6.2,NNE,17.3,-,N/A,,Mostly Cloudy,30,2013-09-16 09:30:00
8:00 PM,69.8,60.8,73,29.86,6.2,NNE,20.7,-,N/A,,Mostly Cloudy,30,2013-09-16 10:00:00
8:30 PM,69.8,60.8,73,29.83,6.2,NNE,23.0,-,N/A,,Partly Cloudy,30,2013-09-16 10:30:00
9:00 PM,69,63,76,29.85,9,NNE,23.0,,,Rain,Light Rain,30,2013-09-16 11:00:00
9:00 PM,69.8,62.6,78,29.83,6.2,NNE,23.0,-,N/A,Rain,Light Rain,30,2013-09-16 11:00:00
9:18 PM,68.0,64.4,88,29.83,5.0,NNE,23.0,-,N/A,Rain-Thunderstorm,Light Thunderstorms and Rain,20,2013-09-16 11:18:00
9:30 PM,68.0,64.4,88,29.83,5.0,NNE,24.2,-,N/A,Rain-Thunderstorm,Thunderstorms and Rain,20,2013-09-16 11:30:00
9:35 PM,68.0,64.4,88,29.83,3.1,NNE,25.3,-,N/A,Rain-Thunderstorm,Thunderstorms and Rain,20,2013-09-16 11:35:00
9:40 PM,68.0,64.4,88,29.89,1.2,North,24.2,-,N/A,Rain-Thunderstorm,Heavy Thunderstorms and Rain,10,2013-09-16 11:40:00
9:42 PM,66.2,64.4,94,29.89,0.9,WNW,18.4,-,N/A,Rain-Thunderstorm,Heavy Thunderstorms and Rain,300,2013-09-16 11:42:00
9:49 PM,64.4,60.8,88,29.86,2.2,West,16.1,-,N/A,Rain-Thunderstorm,Heavy Thunderstorms and Rain,260,2013-09-16 11:49:00
10:00 PM,64,62,90,29.87,,North,12.7,,,,,350,2013-09-16 12:00:00
10:00 PM,64.4,62.6,94,29.86,4.3,North,12.7,-,N/A,Rain-Thunderstorm,Thunderstorms and Rain,350,2013-09-16 12:00:00
10:07 PM,62.6,62.6,100,29.86,5.6,North,15.0,-,N/A,Rain-Thunderstorm,Light Thunderstorms and Rain,360,2013-09-16 12:07:00
10:30 PM,64.4,60.8,88,29.86,5.6,North,8.1,-,N/A,Rain-Thunderstorm,Thunderstorms and Rain,360,2013-09-16 12:30:00
11:00 PM,64.4,62.6,94,29.86,5.6,North,8.1,-,N/A,Rain-Thunderstorm,Light Thunderstorms and Rain,350,2013-09-16 13:00:00
11:22 PM,64.4,62.6,94,29.86,5.6,NNW,10.4,-,N/A,Rain,Light Rain,330,2013-09-16 13:22:00
11:30 PM,64.4,62.6,94,29.86,6.2,NNW,11.5,-,N/A,Rain,Light Rain,340,2013-09-16 13:30:00
11:44 PM,64.4,62.6,94,29.86,5.0,North,16.1,-,N/A,Rain-Thunderstorm,Light Thunderstorms and Rain,350,2013-09-16 13:44:00
11:55 PM,64.4,62.6,94,29.89,3.7,NNW,15.0,-,N/A,Rain-Thunderstorm,Light Thunderstorms and Rain,340,2013-09-16 13:55:00